Location: Peterborough
(44.3091°N, 78.3197°W)
Time: 17:47:33
(UTC-04:00)

Transit 4A - Pass Details

Date: 29 March 2023
Orbit: 864 x 980 km, 66.8° (Epoch: 04 June)

Event Time Altitude Azimuth Distance (km) Brightness Sun altitude
Rises 07:37:46 0° 234° (SW) 3,437 10.4 5.9°
Reaches altitude 10° 07:40:22 10° 242° (WSW) 2,509 9.7 6.3°
Maximum altitude 07:45:47 40° 311° (NW) 1,267 8.4 7.3°
Drops below altitude 10° 07:51:22 10° 21° (NNE) 2,572 10.5 8.3°
Sets 07:54:04 0° 29° (NNE) 3,534 11.3 8.8°
